Simultaneous Nadir Overpasses (SNOs) Predictions

Prediction of SNOs between NOAA-19 and NPP Satellite Orbit:

Table of predicted SNOs for the next 14.0 days since TLE Epoch: 7/31/2012
Index Date (NOAA-19) Time (NOAA-19) NOAA-19 Lat,Lon Date (NPP) Time (NPP) NPP Lat,Lon Distance(km) Time Diff (sec)
1 08/09/2012 04:32:58 80.69, 63.79 08/09/2012 04:34:06 80.70, 63.67 2.12 68
2 08/09/2012 05:23:57 -80.69,-128.84 08/09/2012 05:24:50 -80.68,-128.79 0.93 53
3 08/09/2012 06:15:00 80.63, 39.35 08/09/2012 06:15:33 80.64, 39.28 1.19 33
4 08/09/2012 07:05:59 -80.63,-153.28 08/09/2012 07:06:17 -80.62,-153.19 1.89 18
5 08/09/2012 07:57:02 80.57, 14.89 08/09/2012 07:57:00 80.57, 14.88 0.25 2
6 08/09/2012 08:48:01 -80.56,-177.74 08/09/2012 08:47:44 -80.56,-177.60 2.86 17
7 08/09/2012 09:39:04 80.51, -9.58 08/09/2012 09:38:27 80.50, -9.54 0.74 37
8 08/09/2012 10:30:00 -80.43, 158.77 08/09/2012 10:29:09 -80.44, 158.63 2.72 51




NCC Satellite Simultaneous Nadir Overpasses (SNOs) Prediction Service
